COSMOS 1190

Satellite information

Favourite Embed

Satellite Type and Status

PAYLOADIN ORBIT

Key statistics

Satellite COSMOS 1190 at a glance.

Uptime

16438

Days in orbit

Revolutions

≈ 14.3

Per day

Orbit

LEO

Low Earth Orbit

Inclination

74.0

Latest

Satellite identification and parameters

Extended collection of information and parameters for COSMOS 1190.

Object identification

Identified? True

Debris? False

Object name: COSMOS 1190

International designator: 1980-056A

Object number (NORAD): 11869

Object ID (CCSDS): 11869

Country: COMMONWEALTH OF INDEPENDENT STATES (CIS)

Current information (Y/N): Y

RCS size: LARGE

Orbital parameters

Period: 100.383 minutes

Inclination: 74.0474 deg

SMA: 7154.862 km

Apoapsis: 787.045 km

Periapsis: 766.41 km

RAAN: 317.4196 deg

Eccentricy: 0.001442

Argument of periapsis: 247.7762 deg

Mean anomaly: 112.1861 deg

Mean motion: 14.34500924 rev/day

Mean motion (dot): 0.00000103 rev/day2

B* drag term: 0.000045942 1/REarth

Two-line elements (TLE)

Creation date: July 2, 2025, 2:08 a.m.

Reference frame: TEME

Reference center: EARTH

Epoch: July 1, 2025, 6:55 p.m. UTC

TLE line 0: 0 COSMOS 1190

TLE line 1: 1 11869U 80056A 25182.78844299 .00000103 00000-0 45942-4 0 9995

TLE line 2: 2 11869 74.0474 317.4196 0014420 247.7762 112.1861 14.34500924330042

Live tracking on map

Real-time ground track for satellite COSMOS 1190.

In-orbit conjunctions

A list of the most updated potential collisions computed for object COSMOS 1190.

Target Orbit TCA Probability of collision Miss distance Type
METEOR 1-16 DEB LEO 2025-07-03 01:25:06 0.0001347073 453.0 (m) DEBRIS
CZ-2D DEB SSO 2025-03-04 19:51:23 0.001357253 51.0 (m) DEBRIS
COSMOS 2251 DEB LEO 2025-02-19 01:58:49 0.0001823043 406.0 (m) DEBRIS
CZ-6A DEB SSO 2025-02-07 12:15:25 0.001587727 99.0 (m) DEBRIS
FENGYUN 1C DEB SSO 2025-01-26 08:56:04 0.0008574326 126.0 (m) DEBRIS

Associated space launch

Military communications satellite

COSMOS 1190 was lifted into orbit during the mission ‘Kosmos-3M | Strela-2M 23’, on board a Kosmos-3M space rocket.

The launch took place on July 1, 1980, 7:12 a.m. from 132/2.

For more information about the launch, click the button.

Launch to space Kosmos-3M | Strela-2M 23
Kosmos-3M | Strela-2M 23

Agency: N/A

Status: Launch Successful

Launch date: July 1, 1980, 7:12 a.m. UTC

Rocket: Kosmos-3M

Launch pad: 132/2

Location: Plesetsk Cosmodrome, Russian Federation

...

Latest news about this satellite

There are no fresh news available about this satellite. Check back as we update our databases every day.


Newsletter sign-up

Weekly statistics, charts and insights to help you stay on top of the space industry.